AZERSPACE 1

Last updated on Sat Mar 14 2026 00:02:54 GMT+0000 (Coordinated Universal Time)

1 39079U 13006B 26072.57925893 .00000000 00000+0 00000+0 0 9991 2 39079 0.0226 149.2786 0001163 237.5445 38.9139 1.00270610 47841
UTC large
Height (km)
Speed (km/s)
/
Latitude / Longitude
Inclination (degrees)
Orbital Period (minutes)
Azimuth
Elevation
Range (km)
Doppler Factor

Next 0 passes for location: London (51.5072 / 0.1276)

Sorry there are no passes over London.